Location: ????????
(54.6123°N, 39.2099°E)
Time: 03:55:11
(UTC+00:00)

Okean 1 - Pass Details

Date: 19 May 2025
Orbit: 477 x 498 km, 82.5° (Epoch: 19 June)

Event Time Altitude Azimuth Distance (km) Brightness Sun altitude
Exits shadow 20:08:16 - 219° (SW) 1,732 5.5 -13.9°
Reaches altitude 10° 20:08:24 10° 219° (SW) 1,684 5.5 -13.9°
Maximum altitude 20:11:50 37° 289° (WNW) 780 4.4 -14.0°
Drops below altitude 10° 20:15:17 10° 358° (N) 1,685 7.1 -14.2°
Sets 20:17:31 0° 7° (N) 2,566 8.1 -14.2°
